Terminal Aerodrome Forecast
Issued by NWS Wakefield, VA

Home | Current Version | Previous Version | Text Only | Print | Product List | Glossary On
Versions: 1 2 3 4 5 6 7 8 9 10 11 12 13 14 15 16
000
FTUS41 KAKQ 301100
TAFRIC
TAF
KRIC 301120Z 3012/3112 36005KT P6SM SCT060
     FM301500 VRB05KT P6SM SCT060
     FM310000 17005KT P6SM SKC=

USA.gov is the U.S. government's official web portal to all federal, state and local government web resources and services.